Flag for Germany

Past Weather in Peine, Lower Saxony, Germany — Yesterday and Last 2 Weeks

Now
88 °F

Sunny.


Feels Like: 87 °F
Forecast: 92 / 63 °F
Wind: 3 mph from North

Location: Braunschweig Wolfsburg

Current Time: Aug 7, 2020 at 9:08:39 pm

Latest Report: Aug 7, 2020 at 5:50 pm


Visibility: 10 mi

Pressure: 30.12 "Hg

Humidity: 38%

Dew Point: 59 °F

Location of PeineLocation

Past Weather in Peine — Graph

°F

Peine Temperature Yesterday

Maximum temperature yesterday: 86 °F (at 2:20 pm)
Minimum temperature yesterday: 57 °F (at 1:50 am)
Average temperature yesterday: 79 °F

High & Low Weather Summary for the Past Weeks

 TemperatureHumidityPressure
High88 °F (Aug 1, 1:20 pm)94% (Jul 26, 8:50 am)30.18 "Hg (Jul 26, 8:50 am)
Low55 °F (Jul 29, 11:20 pm)24% (Aug 6, 4:50 pm)29.74 "Hg (Jul 28, 7:20 am)
Average72 °F52%29.98 "Hg
* Reported Jul 23 5:20 pm — Aug 7 5:50 pm, Peine. Weather by CustomWeather, © 2020

Note: Actual official high and low records may vary slightly from our data, if they occured in-between our weather recording intervals... More about our weather records

Peine Weather History for the Previous 24 Hours

Scroll right to see more
 ConditionsComfort  
Time TempWeatherWind HumidityBarometerVisibility
5:50 pm
Fri, Aug 7
88 °FSunny.3 mph38%30.12 "Hg10 mi
5:20 pm88 °FPassing clouds.7 mph38%30.12 "HgN/A
4:50 pm88 °FPassing clouds.7 mph38%30.12 "HgN/A
4:20 pm88 °FPassing clouds.6 mph35%30.12 "HgN/A
3:50 pm88 °FPassing clouds.7 mph40%30.15 "HgN/A
3:20 pm86 °FPassing clouds.8 mph43%30.15 "HgN/A
2:50 pm88 °FPassing clouds.7 mph40%30.15 "HgN/A
2:20 pm86 °FPassing clouds.7 mph40%30.15 "HgN/A
1:50 pm84 °FPassing clouds.8 mph43%30.15 "HgN/A
1:20 pm86 °FPassing clouds.8 mph43%30.18 "HgN/A
12:50 pm84 °FPassing clouds.8 mph43%30.18 "HgN/A
12:20 pm84 °FPassing clouds.8 mph43%30.18 "HgN/A
11:50 am84 °FPassing clouds.9 mph45%30.18 "HgN/A
11:20 am82 °FSunny.9 mph48%30.18 "Hg10 mi
10:50 am81 °FPassing clouds.8 mph51%30.18 "HgN/A
10:20 am81 °FPassing clouds.8 mph51%30.18 "HgN/A
9:20 am75 °FSunny.2 mph57%30.18 "Hg10 mi
8:50 am72 °FSunny.3 mph65%30.18 "Hg10 mi
8:20 am70 °FSunny.2 mph60%30.18 "Hg10 mi
Weather by CustomWeather, © 2020

See weather overview